Home > Weather > Shenzhen > Past weeks

Flag for China Past Weather in Shenzhen, Guangdong, China — Yesterday and Last 2 Weeks

Now
84 °F

Passing clouds.


Feels Like: 92 °F
Forecast: 78 / 96 °F
Wind: 3 mph from East

Location: Shenzhen Airport

Current Time: Jul 31, 2016 at 8:31:19 AM

Latest Report: Jul 31, 2016 at 8:00 AM


Visibility: N/A

Pressure: 29.71 "Hg

Humidity: 74%

Dew Point: 75 °F

Location of ShenzhenLocation

Past Weather in Shenzhen — Graph

°F

Shenzhen Temperature Yesterday

Maximum temperature yesterday: 95 °F (at 1:00 PM)
Minimum temperature yesterday: 82 °F (at 7:00 PM)
Average temperature yesterday: 87 °F

High & Low Weather Summary for the Past Weeks

 TemperatureHumidityPressure
High95 °F (Jul 30, 1:00 PM)94% (Jul 16, 7:00 AM)29.89 "Hg (Jul 16, 7:00 AM)
Low79 °F (Jul 21, 5:00 AM)53% (Jul 24, 3:00 PM)29.65 "Hg (Jul 30, 4:00 PM)
Average87 °F80%29.78 "Hg
* Reported Jul 16 7:00 AM — Jul 31 7:00 AM, Shenzhen, Weather by CustomWeather, © 2016

Note: Actual official high and low records may vary slightly from our data, if they occured in-between our weather recording intervals... More about our weather records

Advertising

Shenzhen Weather History for the Previous 24 Hours

Scroll right to see more
 ConditionsComfort  
Time TempWeatherWind HumidityBarometerVisibility
7:00 AM
Sun, Jul 31
82 °FPassing clouds.6 mph79%29.71 "Hg4 mi
6:00 AM82 °FPassing clouds.6 mph79%29.71 "HgN/A
5:00 AM82 °FPassing clouds.6 mph79%29.71 "HgN/A
4:00 AM84 °FPassing clouds.3 mph74%29.71 "HgN/A
3:00 AM82 °FClear.3 mph79%29.71 "Hg10 mi
2:00 AM82 °FClear.3 mph79%29.71 "Hg10 mi
1:00 AM82 °FClear.6 mph79%29.74 "Hg10 mi
12:00 AM84 °FClear.1 mph74%29.71 "Hg10 mi
11:00 PM
Sat, Jul 30
84 °FClear.3 mph74%29.71 "Hg10 mi
10:00 PM84 °FClear.3 mph74%29.71 "Hg10 mi
9:00 PM82 °FPassing clouds.3 mph79%29.71 "HgN/A
8:00 PM82 °FPassing clouds.1 mph74%29.71 "HgN/A
7:00 PM82 °FPassing clouds.6 mph79%29.68 "HgN/A
6:00 PM84 °FScattered clouds.10 mph74%29.68 "HgN/A
5:00 PM84 °FSprinkles. Scattered clouds.17 mph79%29.68 "HgN/A
4:00 PM86 °FSprinkles. Scattered clouds.13 mph75%29.65 "HgN/A
3:00 PM90 °FScattered clouds.13 mph71%29.68 "HgN/A
2:00 PM95 °FScattered clouds.6 mph63%29.68 "HgN/A
1:00 PM95 °FPassing clouds.6 mph63%29.71 "HgN/A
12:00 PM93 °FSunny.6 mph63%29.74 "Hg10 mi
11:00 AM93 °FSunny.6 mph63%29.77 "Hg10 mi
10:00 AM90 °FPassing clouds.3 mph71%29.77 "HgN/A
9:00 AM88 °FPassing clouds.3 mph75%29.77 "HgN/A
8:00 AM88 °FSunny.6 mph75%29.77 "Hg10 mi
Weather by CustomWeather, © 2016

See weather overviewHow to use our weather pages